Location: El Bakhil
(32.7726°N, 5.5387°W)
Time: 04:55:16
(UTC+00:00)

SL-8 Rocket - Pass Details

Date: 03 March 2021
Orbit: 957 x 991 km, 82.9° (Epoch: 12 April)

Event Time Altitude Azimuth Distance (km) Brightness Sun altitude
Rises 19:46:20 0° 180° (S) 3,673 7.0 -18.7°
Reaches altitude 10° 19:48:51 10° 179° (S) 2,724 6.3 -19.2°
Maximum altitude 19:55:05 78° 94° (E) 998 3.9 -20.5°
Drops below altitude 10° 20:01:18 10° 9° (N) 2,715 6.3 -21.8°
Sets 20:03:48 0° 8° (N) 3,661 7.0 -22.4°
